{"data":{"norad_id":63240,"intl_designator":"2025-052AG","name":"AL MUNTHER","alt_names":[],"object_type":"PAYLOAD","status":"ACTIVE","operator":null,"country":"BHR","launch_date":"2025-03-15","launch_site_code":"AFWTR","launch_vehicle":null,"mission":null,"orbit_class":"UNKNOWN","rcs_meters":null,"size_class":null,"mass_kg":null,"dimensions":null,"purposes":[],"wikipedia_slug":null,"has_3d_model":false,"image_url":null,"decayed_at":null,"tle_current":{"epoch":"2026-05-25T04:12:17.515008Z","epoch_age_seconds":53813,"freshness":"FRESH","line1":"1 63240U 25052AG  26145.17520272  .00017289  00000+0  57924-3 0  9999","line2":"2 63240  97.3913  40.0591 0004948 213.7158 146.3769 15.30982238 66492","mean_motion":15.30982238,"eccentricity":0.0004948,"inclination_deg":97.3913,"raan_deg":40.0591,"arg_perigee_deg":213.7158,"mean_anomaly_deg":146.3769,"bstar":0.00057924,"rev_number":6649,"period_min":94.057263648019,"perigee_km":469.49055884285,"apogee_km":476.27032570372,"semimajor_km":6851.0174422733,"source":"CELESTRAK","updated_at":"2026-05-25T13:38:03.583779Z"}}}